Terminal Aerodrome Forecast
Issued by NWS

Home | Current Version | Previous Version | Text Only | Print | Product List | Glossary On
Versions: 1 2 3 4 5 6 7 8 9 10 11 12
000
FTUS41 KBTV 242327
TAFRUT
TAF
KRUT 242327Z 2500/2524 23010KT P6SM SCT120
     FM251100 17004KT P6SM BKN120
     FM251700 16008KT P6SM OVC060
      AMD LTD TO CLD VIS AND WIND=

USA.gov is the U.S. government's official web portal to all federal, state and local government web resources and services.